Location: *
(45.9500°N, 9.0833°E)
Time: 13:39:40
(UTC+00:00)

CSL-04 Rocket - Pass Details

Date: 03 March 2021
Orbit: 805 x 861 km, 98.9° (Epoch: 18 April)

Event Time Altitude Azimuth Distance (km) Brightness Sun altitude
Rises 18:21:09 0° 160° (SSE) 3,424 6.6 -12.6°
Reaches altitude 10° 18:23:31 10° 159° (SSE) 2,490 5.9 -13.0°
Maximum altitude 18:29:04 81° 73° (ENE) 872 3.7 -14.0°
Drops below altitude 10° 18:34:36 10° 347° (NNW) 2,486 6.4 -14.9°
Sets 18:36:57 0° 347° (NNW) 3,418 7.1 -15.3°
